Weather in Longyearbyen

Norway     78°12′52″N   15°37′31″E
temp.,
°C
wind,
m/s
gust,
m/s
humid.,
%
clouds,
%
prec.,
mm/h
press.,
hPa
HPBL,
m
5 march, fri
fri501:00−15sse228681 0.1 101189
04:00−15se4490100 0.3 1007108
07:00−16se6589100 0.3 1005107
10:00−18se6693100 0.0 1002130
13:00−19se5593100 0.1 1002141
16:00−19ese5594100 0.1 1001218
19:00−19e6795100 0.3 1000351
22:00−20e7993100 0.1 1001331
6 march, sat
sat601:00−20e6993100 0.2 1002301
04:00−20e6892100 0.0 1006282
07:00−20e6793100 0.0 1008313
10:00−20e569381 0.0 1012250
13:00−19ese448447 0.0 1015180
16:00−20ese33820 0.0 1016143
19:00−21ese23780 0.0 1017141
22:00−21ese22750 0.0 1018148
7 march, sun
sun701:00−20se227230 0.0 1019139
04:00−20se227085 0.0 1019123
07:00−19ese336883 0.0 1019132
10:00−19ese336869 0.0 1020122
13:00−19ese336836 0.0 1020119
16:00−19ese33680 0.0 1020120
19:00−19ese33680 0.0 1020117
22:00−19ese33680 0.0 1020121
8 march, mon
mon801:00−18ese33700 0.0 1020120
04:00−16ese337843 0.0 1020131
07:00−16ese338534 0.0 1021104
10:00−15ese338217 0.0 1021116
13:00−14ese237437 0.0 1021105
16:00−14se126959 0.0 1021114
19:00−13se127676 0.0 102098
22:00−13sw117286 0.0 1020119
9 march, tue
tue901:00−13ssw118192 0.0 101872
04:00−11sse1193100 0.3 101674
07:00−10ese2294100 1.1 101488
10:00−10ese3392100 0.4 1013144
13:00−10se2293100 1.2 1011136
16:00−10e2291100 0.4 1009121
19:00−11e338999 0.5 1008134
22:00−13e448731 0.0 1008150